カタログに戻る

CZ-8 R/B

運用中PO
NORAD 69122·ROCKET BODY·🇨🇳 China

打ち上げ May 17, 2026 から Wenchang Space Launch Site

Loading…

次のパス (今後24時間)

TLE

最新Source: Space-Track

元期: Sep 14, 2026, 14:11 UTC

1 69122U 26108U   26257.59144289  .00000184  00000-0  52617-4 0  9999
2 69122  89.0188  11.7594 0069157  79.4338 281.4643 14.39222221 17267

AllMySatでCZ-8 R/Bをリアルタイム追跡

Download on the App Store